sat.trackr.live / text

‹ back to catalog

STARLINK-33835

NORAD 63645 · 2025-083M

PAYLOAD ACTIVE UNKNOWN

§ Identity

Operator
Country
US
Launch date
2025-04-25
Launch site
AFETR
Launch vehicle
Mass (kg)
RCS (m²)

Purposes: comms

External: N2YO · Heavens-Above · Gunter

§ Orbital elements

Epoch: 2026-09-20T12:37:18.784704Z

Period
94.27 min
Inclination
42.9992°
Eccentricity
0.0000342
Mean motion
15.27600290 rev/d
Perigee alt
482.8 km
Apogee alt
483.2 km
Semi-major
6,861.1 km
B*
-2.3434e-4
RAAN
344.9465°
Arg perigee
252.1097°
Mean anomaly
107.9717°
Rev number
7,989

§ Raw data

STARLINK-338351 63645U 25083M   26263.52591186 -.00006708  00000+0 -23434-3 0  99992 63645  42.9992 344.9465 0000342 252.1097 107.9717 15.27600290 79898

JSON: /api/v1/satellites/63645 · /tle

For live sub-satellite position, see the globe view (requires WebGL).

§ Visibility from observer

Set your observer location to see the next 7 days of passes ≥ 10°. The values pass through the URL so the page stays shareable.

No JS? Fill the form by hand. The geolocation button needs JavaScript.